This is the latest recevied weather packets stored in our database for station/object G7UKK-10. If no packets are shown the sender has not sent any weather packets the latest 10 day(s).
| Time | Temp. | Humidity | Pressure | Rain* | Wind** | Luminosity | Snow |
|---|---|---|---|---|---|---|---|
| 1777713917 | 12.78° C | 74% | 1018.3 hPa | 0 mm | - | - | - |
| 1777713017 | 12.78° C | 75% | 1018.4 hPa | 0 mm | - | - | - |
| 1777712117 | 12.22° C | 77% | 1018.6 hPa | 0 mm | - | - | - |
| 1777711217 | 12.22° C | 77% | 1018.7 hPa | 0 mm | - | - | - |
| 1777710317 | 11.67° C | 79% | 1018.5 hPa | 0 mm | - | - | - |
| 1777709417 | 11.67° C | 80% | 1018.7 hPa | 0 mm | - | - | - |
| 1777708517 | 11.11° C | 82% | 1018.5 hPa | 0 mm | - | - | - |
| 1777707617 | 11.11° C | 82% | 1018.5 hPa | 0 mm | - | - | - |
| 1777706717 | 10.56° C | 84% | 1018.6 hPa | 0 mm | - | - | - |
| 1777705817 | 10° C | 85% | 1018.6 hPa | 0 mm | - | - | - |
| 1777704917 | 10° C | 87% | 1018.5 hPa | 0 mm | - | - | - |
| 1777704017 | 10° C | 87% | 1018.6 hPa | 0 mm | - | - | - |
| 1777703117 | 9.44° C | 88% | 1018.3 hPa | 0 mm | - | - | - |
| 1777702217 | 9.44° C | 89% | 1018.4 hPa | 0 mm | - | - | - |
| 1777701317 | 8.89° C | 90% | 1018.5 hPa | 0 mm | - | - | - |
| 1777700417 | 8.89° C | 90% | 1018.4 hPa | 0 mm | - | - | - |
| 1777699517 | 9.44° C | 90% | 1018.4 hPa | 0 mm | - | - | - |
| 1777698617 | 8.89° C | 91% | 1018.3 hPa | 0 mm | - | - | - |
| 1777697717 | 9.44° C | 90% | 1018.3 hPa | 0 mm | - | - | - |
| 1777696817 | 9.44° C | 90% | 1018.5 hPa | 0 mm | - | - | - |
| 1777695917 | 9.44° C | 89% | 1018.5 hPa | 0 mm | - | - | - |
| 1777695017 | 10° C | 89% | 1018.4 hPa | 0 mm | - | - | - |
| 1777694117 | 10° C | 89% | 1018.3 hPa | 0 mm | - | - | - |
| 1777693217 | 10° C | 89% | 1018.6 hPa | 0 mm | - | - | - |
| 1777692317 | 10° C | 88% | 1018.6 hPa | 0 mm | - | - | - |
* Rain latest hour (hover to see other rain measurements)
** Current wind speed in m/s (hover to see current wind gust speed)